Weather History for Tullahoma, TN

Change the Weather History Date:

Tuesday, May 7, 2013

  Actual Average Record
Temperature  
Mean Temperature 54 °F -  
Max Temperature 68 °F 76 °F 82 °F (2014)
Min Temperature 39 °F 52 °F 39 °F (2013)
Degree Days  
Heating Degree Days 12    
Growing Degree Days 4 (Base 50)    
Moisture  
Dew Point 49 °F    
Average Humidity 84    
Maximum Humidity 100    
Minimum Humidity 56    
Precipitation  
Precipitation 0.00 in - - ()
Sea Level Pressure  
Sea Level Pressure 29.98 in    
Wind  
Wind Speed 2 mph (NW)    
Max Wind Speed 12 mph    
Max Gust Speed -    
Visibility 7 miles    
Events      
Averages and records for this station are not official NWS values.
T = Trace of Precipitation, MM = Missing Value Source: NWS Daily Summary

Daily Weather History Graph

Daily Weather History Graph

Search for Another Location

Airport:

Trip Planner

Search our weather history database for the weather conditions in past years. The results will help you decide how hot, cold, wet, or windy it might be!

Date:

Astronomy

May. 07, 2013 Rise Set
Actual Time 5:47 AM CDT 7:36 PM CDT
Civil Twilight 5:19 AM CDT 8:04 PM CDT
Nautical Twilight 4:46 AM CDT 8:37 PM CDT
Astronomical Twilight 4:10 AM CDT 9:13 PM CDT
Moon 4:16 AM CDT (5/7) 5:39 PM CDT (5/7)
Length of Visible Light 14h 44m
Length of Day
13h 49m
Waning Crescent, 5% of the Moon is Illuminated
May 7
Waning Crescent
May 9
New
May 17
First Quarter
May 24
Full
May 31
Last Quarter

Hourly Weather History & Observations

Time (CDT) Temp. Windchill Dew Point Humidity Pressure Visibility Wind Dir Wind Speed Gust Speed Precip Events Conditions
12:15 AM 42.8 °F - 42.8 °F 100% 29.93 in 10.0 mi Calm Calm - N/A   Clear
12:35 AM 42.8 °F - 42.8 °F 100% 29.93 in 10.0 mi Calm Calm - N/A   Clear
12:55 AM 41.0 °F - 41.0 °F 100% 29.93 in 0.5 mi Calm Calm - N/A   Mostly Cloudy
1:15 AM 42.8 °F - 41.0 °F 93% 29.92 in 2.0 mi Calm Calm - N/A   Clear
1:35 AM 41.0 °F - 41.0 °F 100% 29.92 in 3.0 mi Calm Calm - N/A   Clear
1:55 AM 39.2 °F - 39.2 °F 100% 29.91 in 0.5 mi Calm Calm - N/A   Mostly Cloudy
2:15 AM 39.2 °F 37.0 °F 39.2 °F 100% 29.91 in 3.0 mi West 3.5 mph - N/A   Partly Cloudy
2:35 AM 39.2 °F - 39.2 °F 100% 29.91 in 0.5 mi Calm Calm - N/A   Overcast
2:55 AM 39.2 °F - 39.2 °F 100% 29.92 in 0.2 mi Calm Calm - N/A   Overcast
3:15 AM 41.0 °F - 41.0 °F 100% 29.92 in 0.5 mi Calm Calm - N/A   Overcast
3:35 AM 42.8 °F - 42.8 °F 100% 29.92 in 0.2 mi Calm Calm - N/A   Overcast
3:55 AM 42.8 °F 41.1 °F 42.8 °F 100% 29.93 in 0.2 mi NW 3.5 mph - N/A   Overcast
4:15 AM 42.8 °F - 42.8 °F 100% 29.93 in 0.2 mi Calm Calm - N/A   Overcast
4:35 AM 42.8 °F 41.1 °F 42.8 °F 100% 29.94 in 0.2 mi NNW 3.5 mph - N/A   Overcast
4:55 AM 42.8 °F - 42.8 °F 100% 29.94 in 0.2 mi Calm Calm - N/A   Overcast
5:15 AM 42.8 °F - 42.8 °F 100% 29.95 in 0.2 mi Calm Calm - N/A   Overcast
5:35 AM 42.8 °F - 42.8 °F 100% 29.95 in 0.2 mi Calm Calm - N/A   Overcast
5:55 AM 44.6 °F 43.1 °F 42.8 °F 93% 29.95 in 0.2 mi NE 3.5 mph - N/A   Overcast
6:15 AM 44.6 °F 43.1 °F 44.6 °F 100% 29.96 in 0.2 mi ENE 3.5 mph - N/A   Overcast
6:35 AM 44.6 °F 43.1 °F 44.6 °F 100% 29.97 in 0.2 mi East 3.5 mph - N/A   Overcast
6:55 AM 44.6 °F 43.1 °F 44.6 °F 100% 29.98 in 0.2 mi ENE 3.5 mph - N/A   Overcast
7:15 AM 44.6 °F - 44.6 °F 100% 29.98 in 0.8 mi Calm Calm - N/A   Overcast
7:35 AM 46.4 °F - 44.6 °F 93% 29.98 in 1.0 mi Calm Calm - N/A   Overcast
7:55 AM 46.4 °F - 46.4 °F 100% 29.99 in 1.5 mi Calm Calm - N/A   Overcast
8:15 AM 46.4 °F - 46.4 °F 100% 30.00 in 3.0 mi Calm Calm - N/A   Overcast
8:35 AM 48.2 °F - 46.4 °F 93% 30.00 in 10.0 mi Calm Calm - N/A   Overcast
8:55 AM 48.2 °F - 48.2 °F 100% 30.00 in 10.0 mi Calm Calm - N/A   Mostly Cloudy
9:15 AM 50.0 °F - 50.0 °F 100% 30.00 in 10.0 mi SSE 3.5 mph - N/A   Mostly Cloudy
9:35 AM 53.6 °F - 51.8 °F 94% 30.00 in 10.0 mi Calm Calm - N/A   Partly Cloudy
9:55 AM 55.4 °F - 51.8 °F 88% 30.00 in 10.0 mi Calm Calm - N/A   Partly Cloudy
10:15 AM 55.4 °F - 51.8 °F 88% 30.00 in 10.0 mi Calm Calm - N/A   Clear
10:35 AM 59.0 °F - 51.8 °F 77% 30.00 in 10.0 mi North 4.6 mph - N/A   Clear
10:55 AM 60.8 °F - 51.8 °F 72% 30.00 in 10.0 mi Calm Calm - N/A   Clear
11:15 AM 60.8 °F - 50.0 °F 68% 30.00 in 10.0 mi Calm Calm - N/A   Clear
11:35 AM 62.6 °F - 51.8 °F 68% 30.00 in 10.0 mi Calm Calm - N/A   Clear
11:55 AM 62.6 °F - 50.0 °F 63% 30.00 in 10.0 mi NNW 4.6 mph - N/A   Partly Cloudy
12:15 PM 64.4 °F - 48.2 °F 56% 30.00 in 10.0 mi Calm Calm - N/A   Clear
12:35 PM 64.4 °F - 50.0 °F 59% 30.00 in 10.0 mi NW 4.6 mph - N/A   Partly Cloudy
12:55 PM 64.4 °F - 50.0 °F 59% 29.99 in 10.0 mi NNW 6.9 mph - N/A   Partly Cloudy
1:15 PM 64.4 °F - 51.8 °F 64% 29.99 in 10.0 mi WNW 11.5 mph - N/A   Mostly Cloudy
1:35 PM 66.2 °F - 51.8 °F 60% 29.99 in 10.0 mi NW 8.1 mph - N/A   Mostly Cloudy
1:55 PM 66.2 °F - 51.8 °F 60% 29.99 in 10.0 mi NW 10.4 mph - N/A   Scattered Clouds
2:15 PM 66.2 °F - 51.8 °F 60% 29.99 in 10.0 mi NW 9.2 mph - N/A   Partly Cloudy
2:35 PM 66.2 °F - 51.8 °F 60% 29.98 in 10.0 mi NNW 8.1 mph - N/A   Scattered Clouds
2:55 PM 68.0 °F - 53.6 °F 60% 29.98 in 10.0 mi NW 10.4 mph - N/A   Mostly Cloudy
3:15 PM 68.0 °F - 53.6 °F 60% 29.97 in 10.0 mi North 10.4 mph - N/A   Mostly Cloudy
3:35 PM 64.4 °F - 51.8 °F 64% 29.98 in 10.0 mi NNW 10.4 mph - N/A   Overcast
3:55 PM 66.2 °F - 53.6 °F 64% 29.98 in 10.0 mi NNW 6.9 mph - N/A   Mostly Cloudy
4:15 PM 64.4 °F - 53.6 °F 68% 29.98 in 10.0 mi NW 5.8 mph - N/A   Mostly Cloudy
4:35 PM 64.4 °F - 51.8 °F 64% 29.98 in 10.0 mi Variable 4.6 mph - N/A   Mostly Cloudy
4:55 PM 64.4 °F - 51.8 °F 64% 29.98 in 10.0 mi NNW 8.1 mph - N/A   Overcast
5:15 PM 66.2 °F - 51.8 °F 60% 29.98 in 10.0 mi NW 3.5 mph - N/A   Mostly Cloudy
5:35 PM 64.4 °F - 51.8 °F 64% 29.98 in 10.0 mi WNW 6.9 mph - N/A   Partly Cloudy
5:55 PM 64.4 °F - 53.6 °F 68% 29.98 in 10.0 mi WNW 5.8 mph - N/A   Scattered Clouds
6:15 PM 64.4 °F - 53.6 °F 68% 29.98 in 10.0 mi WNW 5.8 mph - N/A   Partly Cloudy
6:35 PM 64.4 °F - 53.6 °F 68% 29.98 in 10.0 mi WNW 4.6 mph - N/A   Clear
6:55 PM 64.4 °F - 53.6 °F 68% 29.98 in 10.0 mi West 4.6 mph - N/A   Clear
7:15 PM 62.6 °F - 53.6 °F 72% 29.98 in 10.0 mi West 4.6 mph - N/A   Clear
7:35 PM 60.8 °F - 53.6 °F 77% 29.99 in 10.0 mi WSW 4.6 mph - N/A   Clear
7:55 PM 59.0 °F - 53.6 °F 82% 30.00 in 10.0 mi Calm Calm - N/A   Clear
8:15 PM 57.2 °F - 53.6 °F 88% 30.00 in 10.0 mi Calm Calm - N/A   Partly Cloudy
8:35 PM 57.2 °F - 53.6 °F 88% 30.00 in 10.0 mi WSW 4.6 mph - N/A   Mostly Cloudy
8:55 PM 57.2 °F - 53.6 °F 88% 30.01 in 10.0 mi WSW 3.5 mph - N/A   Overcast
9:15 PM 57.2 °F - 53.6 °F 88% 30.01 in 10.0 mi WSW 4.6 mph - N/A   Scattered Clouds
9:35 PM 55.4 °F - 51.8 °F 88% 30.02 in 10.0 mi WSW 3.5 mph - N/A   Clear
9:55 PM 55.4 °F - 51.8 °F 88% 30.02 in 10.0 mi WSW 3.5 mph - N/A   Clear
10:15 PM 53.6 °F - 51.8 °F 94% 30.03 in 10.0 mi Calm Calm - N/A   Clear
10:35 PM 53.6 °F - 51.8 °F 94% 30.03 in 10.0 mi Calm Calm - N/A   Clear
10:55 PM 53.6 °F - 51.8 °F 94% 30.02 in 10.0 mi Calm Calm - N/A   Clear
11:15 PM 51.8 °F - 50.0 °F 94% 30.02 in 10.0 mi Calm Calm - N/A   Clear
11:35 PM 50.0 °F - 48.2 °F 94% 30.02 in 10.0 mi Calm Calm - N/A   Clear
11:55 PM 50.0 °F - 48.2 °F 94% 30.02 in 10.0 mi Calm Calm - N/A   Clear